Find Starlink 36267

NORAD ID: 67198 Int'l Des: 2025-304 Owner: SPXS Country: US Constellation: starlink operational
LEOCIRCULAR

Live-Position

3D-Globus wird geladen...

Über Starlink 36267

Beschreibung wird geladen...

Nächste Überflüge

Passes for default location (London). Set your location on the main map for personalized predictions.

Höhenverlauf

Loading altitude history...

Zweizeiliger Elementsatz

1 67198U 25304G 26107.14545028 .00002034 00000-0 17817-3 0 9996
2 67198 70.0005 77.5491 0002949 271.9112 88.1709 14.98344362 19619
Epoch: 17. Apr. 2026 • Age: 14 hours

Aktueller Status

Höhe 574.2 km
Geschwindigkeit 7.57 km/s
Subsatellitenpunkt 13.40°N, 149.65°E
Startdatum 17. Dez. 2025
Alter 0.3 years
Typ internet

Technische Details

Klassifizierung Payload
Masse 575.00 kg
Trockenmasse 530.00 kg
Gesamtmasse 575.00 kg
Länge 0.30 m
Durchmesser 4.10 m
Spannweite 29.00 m
Form Box + pan
Hersteller SPXS
Bus-Typ Starlink V2MO
Phasenstatus In Orbit
Besitzer/Staat SPXS/US

Most Searched